EUTELSAT 7B

Last updated on Wed May 14 2025 00:02:43 GMT+0000 (Coordinated Universal Time)

1 39163U 13022A 25133.59548515 .00000065 00000+0 00000+0 0 9995 2 39163 0.0745 17.2375 0005621 13.4970 62.2284 1.00272352 43950
UTC large
Height (km)
Speed (km/s)
/
Latitude / Longitude
Inclination (degrees)
Orbital Period (minutes)
Azimuth
Elevation
Range (km)
Doppler Factor

Next 0 passes for location: London (51.5072 / 0.1276)

Sorry there are no passes over London.